This demonstration page uses our WeatherBlox Daily Observations layout. Learn more.

Left ArrowRight Arrow

Hourly Observations for July 27, 2022

Temp ( °F °C ) Dew Point ( °F °C ) Humidity (%) Winds ( mph kmh ) Pressure ( in mb ) Visibility ( mi km ) Precip ( " mm )
12:59 am 00:59 Mostly Cloudy 75 23.9 74 23.3 96 96 SW 8 13 30.03 1017 10 16 0.00 0.00
1:59 am 01:59 Mostly Cloudy 75 23.9 74 23.3 96 96 SSW 8 13 30.02 1017 10 16 0.00 0.00
2:59 am 02:59 Mostly Cloudy 75 23.9 74 23.3 96 96 SW 6 9 30.01 1016 10 16 0.00 0.00
3:59 am 03:59 Partly Cloudy 75 23.9 73 22.8 94 94 WSW 7 11 30.00 1016 10 16 0.00 0.00
4:59 am 04:59 Partly Cloudy 75 23.9 73 22.8 94 94 SW 5 7 29.99 1016 10 16 0.00 0.00
5:59 am 05:59 Partly Cloudy 75 23.9 73 22.8 94 94 SW 8 13 29.99 1016 10 16 0.00 0.00
6:59 am 06:59 Partly Cloudy 75 23.9 73 22.8 94 94 WSW 6 9 29.99 1016 9 14 0.00 0.00
7:59 am 07:59 Mostly Cloudy 77 25 74 23.3 90 90 WSW 8 13 30.00 1016 9 14 0.00 0.00
8:59 am 08:59 Mostly Cloudy 79 26.1 74 23.3 85 85 WSW 8 13 30.00 1016 9 14 0.00 0.00
9:59 am 09:59 Mostly Cloudy 81 27.2 75 23.9 82 82 W 10 17 29.98 1015 10 16 0.00 0.00
10:59 am 10:59 Mostly Cloudy 85 29.4 75 23.9 72 72 W 12 19 29.99 1016 9 14 0.00 0.00
11:59 am 11:59 Mostly Cloudy 86 30 75 23.9 70 70 W 13 20 29.99 1016 10 16 0.00 0.00
12:59 pm 12:59 Mostly Cloudy 88 31.1 75 23.9 66 66 W 10 17 29.98 1015 10 16 0.00 0.00
1:59 pm 13:59 Mostly Cloudy 90 32.2 75 23.9 62 62 WNW 13 20 29.97 1015 10 16 0.00 0.00
2:59 pm 14:59 Mostly Cloudy 91 32.8 75 23.9 59 59 W 13 20 29.96 1015 10 16 0.00 0.00
3:59 pm 15:59 Mostly Cloudy 91 32.8 75 23.9 59 59 W 9 15 29.96 1014 10 16 0.00 0.00
4:59 pm 16:59 Mostly Cloudy 90 32.2 73 22.8 58 58 W 13 20 29.96 1015 10 16 0.00 0.00
5:59 pm 17:59 Mostly Cloudy 90 32.2 73 22.8 58 58 W 8 13 29.95 1014 10 16 0.00 0.00
6:59 pm 18:59 Mostly Cloudy 90 32.2 73 22.8 58 58 W 8 13 29.95 1014 10 16 0.00 0.00
7:59 pm 19:59 Mostly Cloudy 85 29.4 75 23.9 72 72 SSW 7 11 29.94 1014 10 16 0.00 0.00
8:59 pm 20:59 Mostly Cloudy 83 28.3 77 25 82 82 SW 8 13 29.96 1015 10 16 0.00 0.00
9:59 pm 21:59 Mostly Cloudy 82 27.8 73 22.8 74 74 SW 7 11 29.96 1015 10 16 0.00 0.00
10:59 pm 22:59 Mostly Cloudy 81 27.2 73 22.8 77 77 SW 7 11 29.95 1014 10 16 0.00 0.00
11:59 pm 23:59 Mostly Cloudy 80 26.7 73 22.8 79 79 WSW 6 9 29.96 1014 10 16 0.00 0.00

Powered by AerisWeather